Tracking 29510 objects as of 16-Sep-2024
HD Live streaming from Space Station
objects crossing your sky now

FENGYUN 1C DEB

Track FENGYUN 1C DEB now!
10-day predictions


NORAD ID: 30665
Int'l Code: 1999-025APX
Perigee: 819.6 km
Apogee: 930.5 km
Inclination: 99.2 °
Period: 102.3 minutes
Semi major axis: 7246 km
RCS: 0.026 m2 (small)
Launch date: May 10, 1999
Source: People's Republic of China (PRC)
Launch site: Taiyaun Space Center, China (TSC)

Note: This is SATELLITE DEBRIS
Your satellite tracking list
Your tracking list is empty




NASA's NSSDC Master Catalog

Two Line Element Set (TLE):
1 30665U 99025APX 24259.86237381  .00008764  00000-0  50849-2 0  9998
2 30665  99.1753 215.3551 0076476  29.0453  26.4087 14.07506679895869
Source of the keplerian elements: AFSPC